Upstream stations:
Downstream station:
SHEF ID: CHNK1 Cheney Lake
STATION TYPE: RESERVOIR
Flood Pool: Bottom = 1421.60, Top = 1429.00
PRECIP ELEVATION STORAGE INFLOW RELEASE WIND-DIRWIND-SPEED VOLTAGE
in ft ac-ft cfs cfs deg mph volt
Ccp-Rev Ccp-Rev Ccp-Rev Rev-Regi Rev-Regi Ccp-Rev Ccp-Rev Ccp-Rev
(US/Central)
09/04 00:00 0.00 1420.31 155059 356 0 ---- ---- 13.13
09/04 01:00 0.00 1420.30 154967 313 0 ---- ---- 13.13
09/04 02:00 0.00 1420.32 155150 521 0 ---- ---- 13.13
09/04 03:00 0.00 1420.33 155242 729 0 ---- ---- 13.13
09/04 04:00 0.00 1420.35 155425 729 0 ---- ---- 13.14
09/04 05:00 0.01 1420.37 155608 521 0 ---- ---- 13.15
09/04 06:00 0.00 1420.36 155516 812 0 ---- ---- 13.14
09/04 07:00 0.00 1420.35 155425 604 0 ---- ---- 13.15
09/04 08:00 0.00 1420.40 155882 395 0 ---- ---- 13.15
09/04 09:00 0.00 1420.38 155699 552 0 ---- ---- 13.15
09/04 10:00 0.00 1420.37 155608 657 0 ---- ---- 13.15
09/04 11:00 0.00 1420.40 155882 262 0 ---- ---- 13.16
09/04 12:00 0.01 1420.42 156065 262 0 ---- ---- 13.16
09/04 13:00 0.00 1420.42 156065 262 0 ---- ---- 13.16
09/04 14:00 0.01 1420.42 156065 105 0 ---- ---- 13.15
09/04 15:00 0.00 1420.40 155882 0 0 ---- ---- 13.15
09/04 16:00 0.00 1420.39 155791 0 0 ---- ---- 13.16
09/04 17:00 0.00 1420.38 155699 79 0 ---- ---- 13.16
09/04 18:00 0.01 1420.38 155699 79 0 ---- ---- 13.16
09/04 19:00 0.00 1420.39 155791 79 0 ---- ---- 13.16
09/04 20:00 0.00 1420.39 155791 79 0 ---- ---- 13.16
09/04 21:00 0.01 1420.39 155791 79 0 ---- ---- 13.16
09/04 22:00 0.00 1420.39 155791 0 0 ---- ---- 13.16
09/04 23:00 0.01 1420.39 155791 0 0 ---- ---- 13.16